Location: Newark
(48.1500°N, 13.1167°E)
Time: 23:47:47
(UTC+00:00)

XW-2D - Pass Details

Date: 15 December 2021
Orbit: 502 x 522 km, 97.5° (Epoch: 19 January)

Event Time Altitude Azimuth Distance (km) Brightness Sun altitude
Rises 16:45:11 0° 187° (S) 2,628 ? -14.3°
Reaches altitude 10° 16:47:24 10° 196° (SSW) 1,749 ? -14.7°
Maximum altitude 16:50:52 34° 263° (W) 871 ? -15.2°
Drops below altitude 10° 16:54:23 10° 330° (NNW) 1,772 ? -15.8°
Sets 16:56:39 0° 340° (NNW) 2,667 ? -16.1°
